North Wilkesboro, NC

12:07 PM EST on December 10, 2019 (GMT -0500)
Wilkes County

Weather History for KUKF - October, 2019

Change the Weather History Date:

Sunday, October 27, 2019

  Actual Average Record
Temperature  
Mean Temperature 66 °F -  
Max Temperature 78 °F 67 °F 84 °F (1963)
Min Temperature 53 °F 38 °F 16 °F (1962)
Growing Degree Days 16 (Base 50)    
Moisture  
Dew Point 59 °F    
Average Humidity 77    
Maximum Humidity 100    
Minimum Humidity 39    
Precipitation  
Precipitation 0.47 in - - ()
Sea Level Pressure  
Sea Level Pressure 29.96 in    
Wind  
Wind Speed 5 mph (West)    
Max Wind Speed 10 mph    
Max Gust Speed 20 mph    
Visibility 9 miles    
Events Rain    
Averages and records for this station are not official NWS values.
T = Trace of Precipitation, MM = Missing Value Source: NWS Daily Summary

Daily Weather History Graph

Daily Weather History Graph

Search for Another Location

Airport or City:

Astronomy

Oct. 27, 2019 Rise Set
Actual Time 7:42 AM EDT 6:33 PM EDT
Civil Twilight 7:15 AM EDT 7:00 PM EDT
Nautical Twilight 6:45 AM EDT 7:30 PM EDT
Astronomical Twilight 6:15 AM EDT 8:00 PM EDT
Moon 6:52 AM EDT (10/27) 6:40 PM EDT (10/27)
Length of Visible Light 11h 44m
Length of Day
10h 51m
Waning Crescent, 0% of the Moon is Illuminated
Oct 27
Waning Crescent
Oct 27
New
Nov 4
First Quarter
Nov 12
Full
Nov 19
Last Quarter

Hourly Weather History & Observations

Time (EDT) Temp. Dew Point Humidity Pressure Visibility Wind Dir Wind Speed Gust Speed Precip Events Conditions
12:15 AM 62.6 °F 62.6 °F 100% 29.96 in 7.0 mi ESE 8.1 mph - 0.01 in   Light Drizzle
12:35 AM 62.6 °F 62.6 °F 100% 29.96 in 5.0 mi ESE 6.9 mph - 0.04 in   Drizzle
12:55 AM 62.6 °F 62.6 °F 100% 29.95 in 5.0 mi ESE 5.8 mph - 0.05 in   Heavy Drizzle
1:15 AM 62.6 °F 62.6 °F 100% 29.95 in 5.0 mi SE 5.8 mph - 0.02 in Rain Rain
1:35 AM 64.4 °F 64.4 °F 100% 29.93 in 7.0 mi SE 9.2 mph - 0.03 in   Light Drizzle
1:55 AM 64.4 °F 64.4 °F 100% 29.93 in 5.0 mi SE 6.9 mph 16.1 mph 0.04 in   Heavy Drizzle
2:15 AM 64.4 °F 64.4 °F 100% 29.91 in 10.0 mi SE 10.4 mph - 0.01 in   Overcast
2:35 AM 64.4 °F 64.4 °F 100% 29.91 in 7.0 mi SE 6.9 mph - 0.02 in   Drizzle
2:55 AM 64.4 °F 64.4 °F 100% 29.90 in 5.0 mi SE 6.9 mph - 0.02 in Rain Light Rain
3:15 AM 64.4 °F 64.4 °F 100% 29.88 in 7.0 mi SE 4.6 mph - N/A   Drizzle
3:35 AM 64.4 °F 64.4 °F 100% 29.88 in 7.0 mi SSE 6.9 mph - 0.01 in Rain Rain
3:55 AM 64.4 °F 64.4 °F 100% 29.87 in 7.0 mi SSW 3.5 mph - 0.05 in Rain Rain
4:15 AM 64.4 °F 64.4 °F 100% 29.86 in 7.0 mi SSE 4.6 mph - N/A   Light Drizzle
4:35 AM 66.2 °F 66.2 °F 100% 29.85 in 7.0 mi South 3.5 mph - 0.01 in   Drizzle
4:55 AM 66.2 °F 66.2 °F 100% 29.85 in 7.0 mi South 8.1 mph - 0.03 in Rain Rain
5:15 AM 68.0 °F 68.0 °F 100% 29.86 in 10.0 mi South 5.8 mph - N/A Rain Light Rain
5:35 AM 68.0 °F 68.0 °F 100% 29.85 in 10.0 mi Calm Calm - N/A Rain Light Rain
5:55 AM 68.0 °F 68.0 °F 100% 29.85 in 10.0 mi SSW 5.8 mph - 0.01 in Rain Light Rain
6:15 AM 68.0 °F 68.0 °F 100% 29.85 in 5.0 mi SW 4.6 mph - 0.03 in Rain Rain
6:35 AM 68.0 °F 68.0 °F 100% 29.87 in 2.5 mi WSW 10.4 mph 19.6 mph 0.22 in Rain Heavy Rain
6:55 AM 68.0 °F 68.0 °F 100% 29.87 in 5.0 mi WSW 3.5 mph - 0.25 in Rain Heavy Rain
7:15 AM 68.0 °F 68.0 °F 100% 29.87 in 10.0 mi West 4.6 mph - 0.01 in   Overcast
7:35 AM 68.0 °F 68.0 °F 100% 29.86 in 7.0 mi SW 4.6 mph - 0.01 in Rain Rain
7:55 AM 68.0 °F 68.0 °F 100% 29.85 in 7.0 mi Calm Calm - 0.02 in   Drizzle
8:15 AM 68.0 °F 68.0 °F 100% 29.86 in 10.0 mi Calm Calm - N/A   Overcast
8:35 AM 68.0 °F 68.0 °F 100% 29.94 in 10.0 mi Calm Calm - N/A   Overcast
8:55 AM 66.2 °F 64.4 °F 94% 29.87 in 10.0 mi WNW 5.8 mph - N/A   Mostly Cloudy
9:15 AM 66.2 °F 64.4 °F 94% 29.95 in 10.0 mi WNW 3.5 mph - N/A   Scattered Clouds
9:35 AM 68.0 °F 62.6 °F 83% 29.95 in 10.0 mi WNW 4.6 mph - N/A   Scattered Clouds
9:55 AM 68.0 °F 62.6 °F 83% 29.96 in 10.0 mi NW 5.8 mph - N/A   Clear
10:15 AM 68.0 °F 60.8 °F 78% 29.96 in 10.0 mi WNW 6.9 mph - N/A   Clear
10:35 AM 69.8 °F 59.0 °F 68% 29.96 in 10.0 mi NNW 8.1 mph - N/A   Clear
10:55 AM 69.8 °F 59.0 °F 68% 29.97 in 10.0 mi NW 6.9 mph - N/A   Clear
11:15 AM 71.6 °F 55.4 °F 57% 29.97 in 10.0 mi West 4.6 mph - N/A   Clear
11:55 AM 73.4 °F 55.4 °F 53% 29.98 in 10.0 mi WNW 3.5 mph - N/A   Clear
12:15 PM 73.4 °F 53.6 °F 50% 29.98 in 10.0 mi West 5.8 mph - N/A   Clear
12:35 PM 73.4 °F 51.8 °F 47% 29.98 in 10.0 mi WNW 5.8 mph - N/A   Clear
12:55 PM 73.4 °F 50.0 °F 44% 29.97 in 10.0 mi NW 3.5 mph - N/A   Clear
1:15 PM 75.2 °F 50.0 °F 41% 29.97 in 10.0 mi NW 8.1 mph - N/A   Clear
1:35 PM 75.2 °F 50.0 °F 41% 29.97 in 10.0 mi NNW 5.8 mph - N/A   Clear
1:55 PM 75.2 °F 51.8 °F 44% 29.96 in 10.0 mi West 6.9 mph - N/A   Clear
2:15 PM 77.0 °F 51.8 °F 41% 29.96 in 10.0 mi NW 6.9 mph - N/A   Clear
2:35 PM 77.0 °F 51.8 °F 41% 29.96 in 10.0 mi Calm Calm - N/A   Clear
2:55 PM 77.0 °F 51.8 °F 41% 29.96 in 10.0 mi WSW 4.6 mph - N/A   Clear
3:15 PM 78.8 °F 51.8 °F 39% 29.96 in 10.0 mi West 6.9 mph - N/A   Clear
3:35 PM 77.0 °F 50.0 °F 39% 29.97 in 10.0 mi Calm Calm - N/A   Clear
3:55 PM 77.0 °F 51.8 °F 41% 29.97 in 10.0 mi West 3.5 mph - N/A   Clear
4:15 PM 77.0 °F 51.8 °F 41% 29.97 in 10.0 mi WNW 3.5 mph - N/A   Clear
4:35 PM 77.0 °F 53.6 °F 44% 29.97 in 10.0 mi WNW 4.6 mph - N/A   Clear
4:55 PM 77.0 °F 53.6 °F 44% 29.98 in 10.0 mi WNW 4.6 mph - N/A   Clear
5:15 PM 77.0 °F 53.6 °F 44% 29.98 in 10.0 mi West 5.8 mph - N/A   Clear
5:35 PM 75.2 °F 53.6 °F 47% 29.99 in 10.0 mi WNW 4.6 mph - N/A   Clear
5:55 PM 73.4 °F 53.6 °F 50% 30.00 in 10.0 mi NW 4.6 mph - N/A   Clear
6:15 PM 71.6 °F 53.6 °F 53% 30.01 in 10.0 mi NNW 4.6 mph - N/A   Clear
6:35 PM 69.8 °F 53.6 °F 56% 30.01 in 10.0 mi NW 5.8 mph - N/A   Clear
6:55 PM 68.0 °F 53.6 °F 60% 30.02 in 10.0 mi NW 3.5 mph - N/A   Clear
7:15 PM 66.2 °F 53.6 °F 64% 30.03 in 10.0 mi NW 5.8 mph - N/A   Clear
7:35 PM 64.4 °F 53.6 °F 68% 30.04 in 10.0 mi NNW 5.8 mph - N/A   Clear
7:55 PM 64.4 °F 53.6 °F 68% 30.05 in 10.0 mi North 6.9 mph - N/A   Clear
8:15 PM 64.4 °F 53.6 °F 68% 30.05 in 10.0 mi North 9.2 mph - N/A   Clear
8:35 PM 62.6 °F 53.6 °F 72% 30.06 in 10.0 mi NW 3.5 mph - N/A   Clear
8:55 PM 60.8 °F 53.6 °F 77% 30.07 in 10.0 mi Calm Calm - N/A   Clear
9:15 PM 59.0 °F 53.6 °F 82% 30.07 in 10.0 mi Calm Calm - N/A   Clear
9:35 PM 57.2 °F 53.6 °F 88% 30.08 in 10.0 mi Calm Calm - N/A   Clear
9:55 PM 55.4 °F 55.4 °F 100% 30.09 in 10.0 mi Calm Calm - N/A   Clear
10:15 PM 55.4 °F 53.6 °F 94% 30.10 in 10.0 mi Calm Calm - N/A   Clear
10:35 PM 53.6 °F 53.6 °F 100% 30.10 in 10.0 mi Calm Calm - N/A   Clear
10:55 PM 55.4 °F 53.6 °F 94% 30.10 in 10.0 mi Calm Calm - N/A   Clear
11:15 PM 53.6 °F 53.6 °F 100% 30.10 in 10.0 mi Calm Calm - N/A   Clear
11:35 PM 53.6 °F 53.6 °F 100% 30.10 in 10.0 mi Calm Calm - N/A   Clear
11:55 PM 53.6 °F 53.6 °F 100% 30.10 in 10.0 mi Calm Calm - N/A   Clear